小惑星2016 EJ203

2016 EJ203

English version
Home page
Updated on February 5, 2017

---------------------------------------------------------------------

・ プロフィール

発見日 2016年3月11日
発見光度 21.9等
発見者 Mt. Lemmon Survey

・ 軌道要素

Epoch 2017 Feb. 16.0 TT = JDT 2457800.5                 MPC
M   0.40903              (2000.0)            P               Q
n   0.00181075     Peri.  227.57150     -0.75897405     +0.65083784
a  66.6647912      Node     7.04363     +0.63387249     +0.73180650
e   0.9589452      Incl.  170.99359     +0.14887597     +0.20216171
P 544              H   18.1           G   0.15           U   0

・ 光度変化

        H = 18.0  G = 0.15

---------------------------------------------------------------------

軌道要素はM.P.E.C. 2017-B47に掲載されたものです。
光度グラフはComet for Windowsで作成したものです。

---------------------------------------------------------------------

Copyright(C) Seiichi Yoshida (comet@aerith.net). All rights reserved.